Dalaman, Turkey

1:25 AM EEST on September 28, 2016 (GMT +0300)
Dalaman

Weather History for LTBS - August, 2013

Change the Weather History Date:

Friday, August 16, 2013

  Actual Average Record
Temperature  
Mean Temperature 81 °F -  
Max Temperature 91 °F 89 °F 96 °F (1996)
Min Temperature 71 °F 70 °F 66 °F (2003)
Cooling Degree Days 16    
Growing Degree Days 31 (Base 50)    
Moisture  
Dew Point 69 °F    
Average Humidity 64    
Maximum Humidity 88    
Minimum Humidity 25    
Precipitation  
Precipitation 0.00 in - - ()
Sea Level Pressure  
Sea Level Pressure 29.72 in    
Wind  
Wind Speed 6 mph ()    
Max Wind Speed 16 mph    
Max Gust Speed -    
Visibility 6.2 miles    
Events      
Averages and records for this station are not official NWS values.
T = Trace of Precipitation, MM = Missing Value Source: Averaged Metar Reports

Daily Weather History Graph

Daily Weather History Graph

Search for Another Location

Airport or City:

Trip Planner

Search our weather history database for the weather conditions in past years. The results will help you decide how hot, cold, wet, or windy it might be!

Date:

Astronomy

Aug. 16, 2013 Rise Set
Actual Time 6:22 AM EEST 7:54 PM EEST
Civil Twilight 5:55 AM EEST 8:22 PM EEST
Nautical Twilight 5:22 AM EEST 8:54 PM EEST
Astronomical Twilight 4:47 AM EEST 9:29 PM EEST
Moon 3:50 PM EEST (8/16) 1:10 AM EEST (8/16)
Length of Visible Light 14h 26m
Length of Day
13h 31m
Waxing Gibbous, 71% of the Moon is Illuminated
Aug 16
Waxing Gibbous
Aug 21
Full
Aug 28
Last Quarter
Sep 5
New
Sep 12
First Quarter

Hourly Weather History & Observations

Time (EEST) Temp. Heat Index Dew Point Humidity Pressure Visibility Wind Dir Wind Speed Gust Speed Precip Events Conditions
12:20 AM 77.0 °F - 71.6 °F 83% 29.74 in - Variable 2.3 mph - N/A   Clear
12:50 AM 77.0 °F - 69.8 °F 78% 29.74 in - ENE 4.6 mph - N/A   Clear
1:20 AM 75.2 °F - 69.8 °F 83% 29.71 in - NE 4.6 mph - N/A   Clear
1:50 AM 75.2 °F - 69.8 °F 83% 29.71 in - ENE 5.8 mph - N/A   Clear
2:20 AM 73.4 °F - 69.8 °F 88% 29.71 in - ENE 4.6 mph - N/A   Clear
2:50 AM 77.0 °F - 68.0 °F 74% 29.71 in - Variable 2.3 mph - N/A   Clear
3:00 AM 77 °F - 68 °F 67% 29.72 in 6 mi East 2.3 mph - -  
3:20 AM 78.8 °F - 66.2 °F 65% 29.71 in - NNW 3.5 mph - N/A   Clear
3:50 AM 73.4 °F - 66.2 °F 78% 29.68 in - NE 2.3 mph - N/A   Clear
4:20 AM 71.6 °F - 66.2 °F 83% 29.68 in - ENE 4.6 mph - N/A   Clear
4:50 AM 73.4 °F - 66.2 °F 78% 29.68 in - NE 5.8 mph - N/A   Clear
5:20 AM 75.2 °F - 62.6 °F 65% 29.68 in - East 5.8 mph - N/A   Clear
5:50 AM 77.0 °F - 60.8 °F 57% 29.68 in - Variable 1.2 mph - N/A   Clear
6:20 AM 77.0 °F - 60.8 °F 57% 29.68 in - NNE 3.5 mph - N/A   Clear
6:50 AM 78.8 °F - 59.0 °F 51% 29.71 in - NE 4.6 mph - N/A   Clear
7:20 AM 77.0 °F - 60.8 °F 57% 29.71 in - East 6.9 mph - N/A   Clear
7:50 AM 80.6 °F 81.8 °F 62.6 °F 54% 29.71 in - ENE 4.6 mph - N/A   Clear
8:20 AM 86.0 °F 84.9 °F 57.2 °F 37% 29.71 in - Variable 1.2 mph - N/A   Clear
8:50 AM 87.8 °F 87.1 °F 59.0 °F 38% 29.74 in - Variable 2.3 mph - N/A   Clear
9:00 AM 89 °F - 58 °F 25% 29.74 in 6 mi 2.3 mph - -  
9:20 AM 89.6 °F 91.1 °F 64.4 °F 43% 29.74 in - SSW 6.9 mph - N/A   Clear
9:50 AM 89.6 °F 90.1 °F 62.6 °F 40% 29.74 in - Variable 5.8 mph - N/A   Clear
10:20 AM 89.6 °F 91.1 °F 64.4 °F 43% 29.74 in - SSW 6.9 mph - N/A   Clear
10:50 AM 91.4 °F 93.2 °F 64.4 °F 41% 29.74 in - SSW 9.2 mph - N/A   Clear
11:20 AM 89.6 °F 94.7 °F 69.8 °F 52% 29.74 in 6.2 mi SSW 11.5 mph - N/A   Partly Cloudy
11:50 AM 89.6 °F 94.7 °F 69.8 °F 52% 29.74 in 6.2 mi SW 11.5 mph - N/A   Partly Cloudy
12:20 PM 91.4 °F 96.8 °F 69.8 °F 49% 29.74 in 6.2 mi SW 10.4 mph - N/A   Partly Cloudy
12:50 PM 89.6 °F 94.7 °F 69.8 °F 52% 29.74 in 6.2 mi SW 11.5 mph - N/A   Partly Cloudy
1:20 PM 89.6 °F 94.7 °F 69.8 °F 52% 29.74 in 6.2 mi SW 12.7 mph - N/A   Partly Cloudy
1:50 PM 87.8 °F 97.6 °F 75.2 °F 66% 29.71 in 6.2 mi SW 13.8 mph - N/A   Partly Cloudy
2:20 PM 87.8 °F 97.6 °F 75.2 °F 66% 29.71 in 6.2 mi SW 13.8 mph - N/A   Partly Cloudy
2:50 PM 89.6 °F 98.2 °F 73.4 °F 59% 29.71 in 6.2 mi SW 12.7 mph - N/A   Partly Cloudy
3:00 PM 89 °F - 72 °F 49% 29.73 in 6 mi SW 12.7 mph - -   Scattered Clouds
3:20 PM 89.6 °F 98.2 °F 73.4 °F 59% 29.71 in 6.2 mi SW 13.8 mph - N/A   Partly Cloudy
3:50 PM 89.6 °F 98.2 °F 73.4 °F 59% 29.71 in 6.2 mi SW 12.7 mph - N/A   Partly Cloudy
4:20 PM 89.6 °F 98.2 °F 73.4 °F 59% 29.71 in 6.2 mi SW 12.7 mph - N/A   Partly Cloudy
4:50 PM 87.8 °F 95.6 °F 73.4 °F 62% 29.68 in 6.2 mi WSW 15.0 mph - N/A   Partly Cloudy
5:20 PM 87.8 °F 93.8 °F 71.6 °F 58% 29.68 in 6.2 mi WSW 16.1 mph - N/A   Partly Cloudy
5:50 PM 86.0 °F 93.4 °F 73.4 °F 66% 29.71 in 6.2 mi WSW 15.0 mph - N/A   Partly Cloudy
6:20 PM 86.0 °F 93.4 °F 73.4 °F 66% 29.71 in 6.2 mi SW 13.8 mph - N/A   Partly Cloudy
6:50 PM 84.2 °F 92.3 °F 75.2 °F 74% 29.71 in 6.2 mi South 12.7 mph - N/A   Partly Cloudy
7:20 PM 82.4 °F 89.5 °F 75.2 °F 79% 29.71 in 6.2 mi South 12.7 mph - N/A   Partly Cloudy
7:50 PM 82.4 °F 89.5 °F 75.2 °F 79% 29.71 in - South 11.5 mph - N/A   Clear
8:20 PM 82.4 °F 88.2 °F 73.4 °F 74% 29.71 in - South 9.2 mph - N/A   Clear
8:50 PM 82.4 °F 88.2 °F 73.4 °F 74% 29.74 in - South 6.9 mph - N/A   Clear
9:20 PM 82.4 °F 88.2 °F 73.4 °F 74% 29.74 in - South 6.9 mph - N/A   Clear
9:50 PM 82.4 °F 88.2 °F 73.4 °F 74% 29.74 in - South 6.9 mph - N/A   Clear
10:20 PM 78.8 °F - 71.6 °F 78% 29.74 in - East 4.6 mph - N/A   Clear
10:50 PM 80.6 °F 85.4 °F 73.4 °F 79% 29.74 in - South 4.6 mph - N/A   Clear
11:20 PM 78.8 °F - 73.4 °F 83% 29.74 in - Variable 1.2 mph - N/A   Clear
11:50 PM 77.0 °F - 71.6 °F 83% 29.74 in - East 2.3 mph - N/A   Clear